Location: Clanezzo
(45.7500°N, 9.6000°E)
Time: 00:45:42
(UTC+00:00)

Cosmos 1271 Rocket - Pass Details

Date: 12 May 2021
Orbit: 497 x 545 km, 81.2° (Epoch: 23 June)

Event Time Altitude Azimuth Distance (km) Brightness Sun altitude
Exits shadow 20:04:34 19° 125° (SE) 1,326 4.1 -12.4°
Maximum altitude 20:06:09 25° 91° (E) 1,142 4.0 -12.6°
Drops below altitude 10° 20:09:26 10° 36° (NE) 1,825 5.6 -13.0°
Sets 20:11:52 0° 23° (NNE) 2,722 6.7 -13.3°
